Time,TemperatureF,DewpointF,PressureIn,WindDirection,WindDirectionDegrees,WindSpeedMPH,WindSpeedGustMPH,Humidity,HourlyPrecipIn,Conditions,Clouds,dailyrainin,SolarRadiationWatts/m^2,SoftwareType,DateUTC
2013-02-04 00:21:00,51.0,28.0,30.09,ESE,111,7.0,8.0,40,0.00,,,0.00,0.000000,,2013-02-04 08:21:00,
2013-02-04 00:31:00,51.0,28.0,30.09,ESE,111,7.0,8.0,40,0.00,,,0.00,0.000000,,2013-02-04 08:31:00,
2013-02-04 00:41:00,51.0,28.0,30.09,ESE,111,7.0,8.0,40,0.00,,,0.00,0.000000,,2013-02-04 08:41:00,
2013-02-04 00:52:00,51.0,28.0,30.09,ESE,111,7.0,8.0,40,0.00,,,0.00,0.000000,,2013-02-04 08:52:00,
2013-02-04 01:21:00,52.0,27.0,30.08,NNE,31,3.0,10.0,37,0.00,,,0.00,0.000000,,2013-02-04 09:21:00,
2013-02-04 01:31:00,52.0,27.0,30.08,NNE,31,3.0,10.0,37,0.00,,,0.00,0.000000,,2013-02-04 09:31:00,
2013-02-04 01:41:00,52.0,27.0,30.08,NNE,31,3.0,10.0,37,0.00,,,0.00,0.000000,,2013-02-04 09:41:00,
2013-02-04 01:51:00,52.0,27.0,30.08,NNE,31,3.0,10.0,37,0.00,,,0.00,0.000000,,2013-02-04 09:51:00,
2013-02-04 02:21:00,49.0,25.0,30.08,NNW,335,2.0,8.0,38,0.00,,,0.00,0.000000,,2013-02-04 10:21:00,
2013-02-04 02:32:00,49.0,25.0,30.08,NNW,335,2.0,8.0,38,0.00,,,0.00,0.000000,,2013-02-04 10:32:00,
2013-02-04 02:41:00,49.0,25.0,30.08,NNW,335,2.0,8.0,38,0.00,,,0.00,0.000000,,2013-02-04 10:41:00,
2013-02-04 02:51:00,49.0,25.0,30.08,NNW,335,2.0,8.0,38,0.00,,,0.00,0.000000,,2013-02-04 10:51:00,
2013-02-04 03:22:00,50.0,26.0,30.08,East,98,5.0,5.0,39,0.00,,,0.00,0.000000,,2013-02-04 11:22:00,
2013-02-04 03:32:00,50.0,26.0,30.08,East,98,5.0,5.0,39,0.00,,,0.00,0.000000,,2013-02-04 11:32:00,
2013-02-04 03:42:00,50.0,26.0,30.08,East,98,5.0,5.0,39,0.00,,,0.00,0.000000,,2013-02-04 11:42:00,
2013-02-04 03:52:00,50.0,26.0,30.08,East,98,5.0,5.0,39,0.00,,,0.00,0.000000,,2013-02-04 11:52:00,
2013-02-04 04:21:00,48.0,24.0,30.07,North,359,4.0,7.0,38,0.00,,,0.00,0.000000,,2013-02-04 12:21:00,
2013-02-04 04:32:00,48.0,24.0,30.07,North,359,4.0,7.0,38,0.00,,,0.00,0.000000,,2013-02-04 12:32:00,
2013-02-04 04:42:00,48.0,24.0,30.07,North,359,4.0,7.0,38,0.00,,,0.00,0.000000,,2013-02-04 12:42:00,
2013-02-04 04:52:00,48.0,24.0,30.07,North,359,4.0,7.0,38,0.00,,,0.00,0.000000,,2013-02-04 12:52:00,
2013-02-04 05:21:00,48.0,25.0,30.07,North,350,2.0,9.0,40,0.00,,,0.00,0.000000,,2013-02-04 13:21:00,
2013-02-04 05:32:00,48.0,25.0,30.07,North,350,2.0,9.0,40,0.00,,,0.00,0.000000,,2013-02-04 13:32:00,
2013-02-04 05:41:00,48.0,25.0,30.07,North,350,2.0,9.0,40,0.00,,,0.00,0.000000,,2013-02-04 13:41:00,
2013-02-04 05:51:00,48.0,25.0,30.07,North,350,2.0,9.0,40,0.00,,,0.00,0.000000,,2013-02-04 13:51:00,
2013-02-04 06:21:00,47.0,26.0,30.07,ESE,104,5.0,7.0,43,0.00,,,0.00,0.000000,,2013-02-04 14:21:00,
2013-02-04 06:32:00,47.0,26.0,30.07,ESE,104,5.0,7.0,43,0.00,,,0.00,0.000000,,2013-02-04 14:32:00,
2013-02-04 06:42:00,47.0,26.0,30.07,ESE,104,5.0,7.0,43,0.00,,,0.00,0.000000,,2013-02-04 14:42:00,
2013-02-04 06:52:00,47.0,26.0,30.07,ESE,104,5.0,7.0,43,0.00,,,0.00,0.000000,,2013-02-04 14:52:00,
2013-02-04 07:23:00,47.0,26.0,30.08,ESE,108,5.0,7.0,43,0.00,,,0.00,0.000000,,2013-02-04 15:23:00,
2013-02-04 07:33:00,47.0,26.0,30.08,ESE,108,5.0,7.0,43,0.00,,,0.00,0.000000,,2013-02-04 15:33:00,
2013-02-04 07:43:00,47.0,26.0,30.08,ESE,108,5.0,7.0,43,0.00,,,0.00,0.000000,,2013-02-04 15:43:00,
2013-02-04 07:52:00,47.0,26.0,30.08,ESE,108,5.0,7.0,43,0.00,,,0.00,0.000000,,2013-02-04 15:52:00,
2013-02-04 10:22:00,68.0,34.0,30.11,SW,221,3.0,4.0,28,-99.99,,,0.00,455.000000,,2013-02-04 18:22:00,
2013-02-04 10:31:00,68.0,34.0,30.11,SW,221,3.0,4.0,28,-99.99,,,0.00,455.000000,,2013-02-04 18:31:00,
2013-02-04 10:41:00,68.0,34.0,30.11,SW,221,3.0,4.0,28,-99.99,,,0.00,455.000000,,2013-02-04 18:41:00,
2013-02-04 10:52:00,68.0,34.0,30.11,SW,221,3.0,4.0,28,-99.99,,,0.00,455.000000,,2013-02-04 18:52:00,
2013-02-04 11:22:00,73.0,34.0,30.11,South,191,4.0,8.0,24,0.00,,,0.00,595.000000,,2013-02-04 19:22:00,
2013-02-04 11:31:00,73.0,34.0,30.11,South,191,4.0,8.0,24,0.00,,,0.00,595.000000,,2013-02-04 19:31:00,
2013-02-04 11:41:00,73.0,34.0,30.11,South,191,4.0,8.0,24,0.00,,,0.00,595.000000,,2013-02-04 19:41:00,
2013-02-04 11:51:00,73.0,34.0,30.11,South,191,4.0,8.0,24,0.00,,,0.00,595.000000,,2013-02-04 19:51:00,
2013-02-04 12:21:00,73.0,31.0,30.08,NNE,12,10.0,12.0,21,0.00,,,0.00,718.000000,,2013-02-04 20:21:00,
2013-02-04 12:32:00,73.0,31.0,30.08,NNE,12,10.0,12.0,21,0.00,,,0.00,718.000000,,2013-02-04 20:32:00,
2013-02-04 12:42:00,73.0,31.0,30.08,NNE,12,10.0,12.0,21,0.00,,,0.00,718.000000,,2013-02-04 20:42:00,
2013-02-04 12:52:00,73.0,31.0,30.08,NNE,12,10.0,12.0,21,0.00,,,0.00,718.000000,,2013-02-04 20:52:00,
2013-02-04 13:22:00,76.0,29.0,30.05,NNE,18,12.0,19.0,18,0.00,,,0.00,742.000000,,2013-02-04 21:22:00,
2013-02-04 13:31:00,76.0,29.0,30.05,NNE,18,12.0,19.0,18,0.00,,,0.00,742.000000,,2013-02-04 21:31:00,
2013-02-04 13:42:00,76.0,29.0,30.05,NNE,18,12.0,19.0,18,0.00,,,0.00,742.000000,,2013-02-04 21:42:00,
2013-02-04 13:51:00,76.0,29.0,30.05,NNE,18,12.0,19.0,18,0.00,,,0.00,742.000000,,2013-02-04 21:51:00,
2013-02-04 14:21:00,75.0,24.0,30.02,NNE,14,10.0,22.0,15,0.00,,,0.00,693.000000,,2013-02-04 22:21:00,
2013-02-04 14:32:00,75.0,24.0,30.02,NNE,14,10.0,22.0,15,0.00,,,0.00,693.000000,,2013-02-04 22:32:00,
2013-02-04 14:41:00,75.0,24.0,30.02,NNE,14,10.0,22.0,15,0.00,,,0.00,693.000000,,2013-02-04 22:41:00,
2013-02-04 14:51:00,75.0,24.0,30.02,NNE,14,10.0,22.0,15,0.00,,,0.00,693.000000,,2013-02-04 22:51:00,
2013-02-04 15:21:00,78.0,23.0,30.01,North,359,5.0,19.0,13,0.00,,,0.00,580.000000,,2013-02-04 23:21:00,
2013-02-04 15:32:00,78.0,23.0,30.01,North,359,5.0,19.0,13,0.00,,,0.00,580.000000,,2013-02-04 23:32:00,
2013-02-04 15:41:00,78.0,23.0,30.01,North,359,5.0,19.0,13,0.00,,,0.00,580.000000,,2013-02-04 23:41:00,
2013-02-04 15:52:00,78.0,23.0,30.01,North,359,5.0,19.0,13,0.00,,,0.00,580.000000,,2013-02-04 23:52:00,
2013-02-04 16:21:00,76.0,20.0,30.01,ENE,67,5.0,18.0,12,0.00,,,0.00,411.000000,,2013-02-05 00:21:00,
2013-02-04 16:31:00,76.0,20.0,30.01,ENE,67,5.0,18.0,12,0.00,,,0.00,411.000000,,2013-02-05 00:31:00,
2013-02-04 16:42:00,76.0,20.0,30.01,ENE,67,5.0,18.0,12,0.00,,,0.00,411.000000,,2013-02-05 00:42:00,
2013-02-04 16:51:00,76.0,20.0,30.01,ENE,67,5.0,18.0,12,0.00,,,0.00,411.000000,,2013-02-05 00:51:00,
2013-02-04 17:21:00,74.0,22.0,29.99,NNE,30,7.0,13.0,14,0.00,,,0.00,203.000000,,2013-02-05 01:21:00,
2013-02-04 17:32:00,74.0,22.0,29.99,NNE,30,7.0,13.0,14,0.00,,,0.00,203.000000,,2013-02-05 01:32:00,
2013-02-04 18:21:00,62.0,45.0,30.01,SW,224,7.0,14.0,53,0.00,,,0.00,19.000000,,2013-02-05 02:21:00,
2013-02-04 18:31:00,62.0,45.0,30.01,SW,224,7.0,14.0,53,0.00,,,0.00,19.000000,,2013-02-05 02:31:00,
2013-02-04 18:41:00,62.0,45.0,30.01,SW,224,7.0,14.0,53,0.00,,,0.00,19.000000,,2013-02-05 02:41:00,
2013-02-04 18:52:00,62.0,45.0,30.01,SW,224,7.0,14.0,53,0.00,,,0.00,19.000000,,2013-02-05 02:52:00,
2013-02-04 19:21:00,60.0,46.0,30.03,SW,217,5.0,13.0,59,0.00,,,0.00,0.000000,,2013-02-05 03:21:00,
2013-02-04 19:31:00,60.0,46.0,30.03,SW,217,5.0,13.0,59,0.00,,,0.00,0.000000,,2013-02-05 03:31:00,
2013-02-04 19:41:00,60.0,46.0,30.03,SW,217,5.0,13.0,59,0.00,,,0.00,0.000000,,2013-02-05 03:41:00,
2013-02-04 19:51:00,60.0,46.0,30.03,SW,217,5.0,13.0,59,0.00,,,0.00,0.000000,,2013-02-05 03:51:00,
2013-02-04 20:21:00,57.0,45.0,30.05,NNW,343,1.0,6.0,65,0.00,,,0.00,0.000000,,2013-02-05 04:21:00,
2013-02-04 20:32:00,57.0,45.0,30.05,NNW,343,1.0,6.0,65,0.00,,,0.00,0.000000,,2013-02-05 04:32:00,
2013-02-04 20:41:00,57.0,45.0,30.05,NNW,343,1.0,6.0,65,0.00,,,0.00,0.000000,,2013-02-05 04:41:00,
2013-02-04 20:52:00,57.0,45.0,30.05,NNW,343,1.0,6.0,65,0.00,,,0.00,0.000000,,2013-02-05 04:52:00,
2013-02-04 21:21:00,55.0,47.0,30.07,West,275,3.0,5.0,74,0.00,,,-99.99,0.000000,,2013-02-05 05:21:00,
2013-02-04 21:32:00,55.0,47.0,30.07,West,275,3.0,5.0,74,0.00,,,-99.99,0.000000,,2013-02-05 05:32:00,
2013-02-04 21:42:00,55.0,47.0,30.07,West,275,3.0,5.0,74,0.00,,,-99.99,0.000000,,2013-02-05 05:42:00,
2013-02-04 21:52:00,55.0,47.0,30.07,West,275,3.0,5.0,74,0.00,,,-99.99,0.000000,,2013-02-05 05:52:00,
2013-02-04 22:21:00,52.0,45.0,30.08,East,91,1.0,6.0,78,0.00,,,0.00,0.000000,,2013-02-05 06:21:00,
2013-02-04 22:32:00,52.0,45.0,30.08,East,91,1.0,6.0,78,0.00,,,0.00,0.000000,,2013-02-05 06:32:00,
2013-02-04 22:41:00,52.0,45.0,30.08,East,91,1.0,6.0,78,0.00,,,0.00,0.000000,,2013-02-05 06:41:00,
2013-02-04 22:51:00,52.0,45.0,30.08,East,91,1.0,6.0,78,0.00,,,0.00,0.000000,,2013-02-05 06:51:00,
2013-02-04 23:22:00,53.0,42.0,30.07,ENE,69,2.0,8.0,65,0.00,,,0.00,0.000000,,2013-02-05 07:22:00,
2013-02-04 23:31:00,53.0,42.0,30.07,ENE,69,2.0,8.0,65,0.00,,,0.00,0.000000,,2013-02-05 07:31:00,
2013-02-04 23:41:00,53.0,42.0,30.07,ENE,69,2.0,8.0,65,0.00,,,0.00,0.000000,,2013-02-05 07:41:00,
2013-02-04 23:51:00,53.0,42.0,30.07,ENE,69,2.0,8.0,65,0.00,,,0.00,0.000000,,2013-02-05 07:51:00,